Location: New Mesquite
(33.1168°N, 96.4336°W)
Time: 18:31:10
(UTC+00:00)

Cosmos 1538 Rocket - Pass Details

Date: 06 July 2022
Orbit: 752 x 791 km, 74.0° (Epoch: 06 August)

Event Time Altitude Azimuth Distance (km) Brightness Sun altitude
Exits shadow 09:54:39 - 171° (S) 2,664 6.5 -16.0°
Reaches altitude 10° 09:55:39 10° 168° (SSE) 2,302 6.2 -15.8°
Maximum altitude 10:00:26 38° 101° (E) 1,160 5.3 -15.1°
Drops below altitude 10° 10:05:12 10° 35° (NE) 2,292 7.7 -14.3°
Sets 10:07:42 0° 27° (NNE) 3,216 8.5 -13.9°
